Location: *
(42.3377°N, 71.0868°W)
Time: 05:13:32
(UTC+00:00)

SL-4 R/B - Pass Details

Date: 09 April 2020
Orbit: 428 x 666 km, 51.6° (Epoch: 28 May)

Event Time Altitude Azimuth Distance (km) Brightness Sun altitude
Rises 23:47:09 0° 259° (W) 2,407 6.6 -5.7°
Reaches altitude 10° 23:49:23 10° 269° (W) 1,528 5.7 -6.1°
Maximum altitude 23:52:32 34° 336° (NNW) 728 3.1 -6.7°
Drops below altitude 10° 23:55:41 10° 44° (NE) 1,533 4.0 -7.2°
Sets 23:57:57 0° 54° (NE) 2,416 5.0 -7.6°
